This is the latest recevied weather packets stored in our database for station/object KDEQ. If no packets are shown the sender has not sent any weather packets the latest 10 day(s).
| Time | Temp. | Humidity | Pressure | Rain* | Wind** | Luminosity | Snow |
|---|---|---|---|---|---|---|---|
| 1777846410 | 26.67° C | 42% | 1014.6 hPa | - | - | - | - |
| 1777845213 | 26.67° C | 42% | 1015.6 hPa | - | - | - | - |
| 1777842813 | 26.67° C | 42% | 1015.6 hPa | - | - | - | - |
| 1777841612 | 26.67° C | 42% | 1016.9 hPa | - | - | - | - |
| 1777840409 | 26.67° C | 42% | 1016.9 hPa | - | - | - | - |
| 1777839814 | 26.67° C | 42% | 1016.9 hPa | - | - | - | - |
| 1777839214 | 26.67° C | 42% | 1016.9 hPa | - | - | - | - |
| 1777836812 | 25.56° C | 44% | 1017.9 hPa | - | - | - | - |
| 1777835613 | 25.56° C | 44% | 1017.9 hPa | - | - | - | - |
| 1777834414 | 23.89° C | 47% | 1019 hPa | - | - | - | - |
| 1777833216 | 23.89° C | 47% | 1019 hPa | - | - | - | - |
| 1777832612 | 23.89° C | 47% | 1019 hPa | - | - | - | - |
| 1777832013 | 23.89° C | 47% | 1019 hPa | - | - | - | - |
| 1777829611 | 22.78° C | 49% | 1019.6 hPa | - | - | - | - |
| 1777828410 | 22.78° C | 49% | 1019.6 hPa | - | - | - | - |
| 1777827216 | 20.56° C | 52% | 1020.3 hPa | - | - | - | - |
| 1777811010 | 8.89° C | 93% | 1020.7 hPa | - | - | - | - |
| 1777807413 | 7.78° C | 100% | 1020.3 hPa | - | - | - | - |
| 1777805608 | 7.78° C | 100% | 1020 hPa | - | - | - | - |
| 1777802609 | 7.78° C | 100% | 1020 hPa | - | - | - | - |
| 1777800810 | 7.78° C | 100% | 1020 hPa | - | - | - | - |
| 1777800209 | 7.78° C | 100% | 1020 hPa | - | - | - | - |
| 1777799610 | 7.78° C | 100% | 1020 hPa | - | - | - | - |
| 1777799011 | 7.78° C | 100% | 1020 hPa | - | - | - | - |
| 1777798411 | 8.89° C | 100% | 1020 hPa | - | - | - | - |
* Rain since midnight (hover to see other rain measurements)
** Current wind speed in m/s (hover to see current wind gust speed)